Home   Weather   Chengdu   Past weeks

Flag for China Past Weather in Chengdu, Sichuan, China — Yesterday and Last 2 Weeks

Now
48 °F

Fog.


Feels Like: 48 °F
Forecast: 44 / 57 °F
Wind: 1 mph from North

Location: Chengdu Airport

Current Time: Dec 9, 2016 at 6:08:31 am

Latest Report: Dec 9, 2016 at 5:00 am


Visibility: 2 mi

Pressure: 30.01 "Hg

Humidity: 87%

Dew Point: 45 °F

Location of ChengduLocation

Past Weather in Chengdu — Graph

°F

Chengdu Temperature Yesterday

Maximum temperature yesterday: 52 °F (at 3:00 pm)
Minimum temperature yesterday: 45 °F (at 12:00 am)
Average temperature yesterday: 47 °F

High & Low Weather Summary for the Past Weeks

 TemperatureHumidityPressure
High63 °F (Nov 30, 1:00 pm)100% (Nov 25, 5:00 am)30.51 "Hg (Nov 25, 5:00 am)
Low36 °F (Nov 25, 5:00 am)33% (Nov 26, 4:00 pm)30.01 "Hg (Dec 9, 5:00 am)
Average50 °F82%30.30 "Hg
* Reported Nov 24 5:00 am — Dec 9 5:00 am, Chengdu, Weather by CustomWeather, © 2016

Note: Actual official high and low records may vary slightly from our data, if they occured in-between our weather recording intervals... More about our weather records

Advertising

Chengdu Weather History for the Previous 24 Hours

Scroll right to see more
 ConditionsComfort  
Time TempWeatherWind HumidityBarometerVisibility
5:00 am
Fri, Dec 9
48 °FFog.1 mph87%30.01 "Hg2 mi
4:00 am48 °FFog.1 mph87%30.04 "Hg1 mi
3:00 am48 °FFog.No wind94%30.04 "Hg1 mi
2:00 am48 °FFog.No wind94%30.04 "Hg1 mi
1:00 am48 °FFog.1 mph94%30.07 "Hg1 mi
12:00 am48 °FFog.1 mph94%30.09 "Hg1 mi
11:00 pm
Thu, Dec 8
50 °FFog.1 mph88%30.09 "Hg1 mi
10:00 pm50 °FFog.1 mph94%30.09 "Hg1 mi
9:00 pm50 °FFog.1 mph94%30.09 "Hg1 mi
8:00 pm50 °FFog.1 mph94%30.09 "Hg1 mi
7:00 pm50 °FFog.3 mph88%30.07 "Hg1 mi
6:00 pm50 °FFog.3 mph88%30.07 "Hg1 mi
5:00 pm52 °FFog.3 mph88%30.07 "Hg1 mi
4:00 pm52 °FFog.1 mph88%30.07 "Hg1 mi
3:00 pm52 °FFog.1 mph100%30.07 "Hg1 mi
2:00 pm50 °FFog.No wind100%30.09 "Hg1 mi
1:00 pm48 °FFog.No wind100%30.12 "Hg1 mi
12:00 pm46 °FFog.No wind100%30.15 "Hg1 mi
11:00 am46 °FFog.No wind100%30.21 "Hg1 mi
10:00 am46 °FFog.1 mph100%30.21 "Hg0 mi
9:00 am45 °FFog.1 mph100%30.18 "Hg0 mi
8:00 am45 °FFog.1 mph100%30.18 "Hg0 mi
7:00 am45 °FFog.3 mph100%30.15 "Hg0 mi
6:00 am45 °FFog.1 mph100%30.18 "Hg0 mi
Weather by CustomWeather, © 2016

See weather overviewHow to use our weather pages